Total_Precipitation_Accumulation
0.80 0.80 0.70 0.67 0.67 0.67 0.65 0.67 0.76 0.85 0.95 1.00 1.05 1.10 1.12 1.21 1.27 1.38 1.52 1.63 1.63 1.61 1.53 1.56 1.66 1.72 1.89 1.94 1.91 1.84 1.83 1.74 1.58 1.49 1.24 1.02 1.00 1.04 1.08 1.00 0.99 0.96 0.82
0.86 0.79 0.71 0.71 0.74 0.79 0.77 0.70 0.71 0.77 0.79 0.90 1.04 1.03 1.04 1.08 1.16 1.26 1.35 1.39 1.45 1.39 1.30 1.30 1.40 1.49 1.62 1.77 1.88 1.79 1.79 1.74 1.70 1.64 1.41 1.19 1.10 1.07 1.07 1.03 0.94 0.93 0.92
0.86 0.84 0.76 0.66 0.69 0.75 0.75 0.68 0.65 0.70 0.74 0.88 1.02 1.14 1.06 0.97 1.05 1.14 1.19 1.21 1.20 1.14 1.10 1.10 1.15 1.22 1.33 1.47 1.61 1.71 1.70 1.66 1.75 1.72 1.50 1.26 1.14 1.08 1.08 1.05 0.98 1.00 0.94
0.91 0.85 0.82 0.76 0.78 0.73 0.64 0.61 0.63 0.63 0.61 0.68 0.82 0.94 0.99 0.95 0.90 0.91 0.96 1.11 1.09 0.99 0.90 0.88 0.91 0.94 1.01 1.16 1.29 1.45 1.60 1.71 1.80 1.80 1.62 1.34 1.16 1.11 1.11 1.16 1.16 1.05 1.04
0.97 0.92 0.85 0.80 0.70 0.63 0.57 0.51 0.52 0.48 0.47 0.54 0.70 0.88 0.94 0.94 0.97 0.97 0.89 0.93 0.98 0.98 0.90 0.81 0.74 0.74 0.82 0.91 1.01 1.26 1.44 1.59 1.73 1.78 1.68 1.49 1.29 1.21 1.13 1.11 1.19 1.28 1.26
0.79 0.80 0.81 0.77 0.62 0.54 0.48 0.41 0.40 0.41 0.42 0.45 0.53 0.69 0.85 0.84 0.99 1.04 0.98 0.89 0.89 0.88 0.87 0.87 0.86 0.81 0.69 0.64 0.68 0.84 1.07 1.28 1.45 1.55 1.57 1.44 1.29 1.23 1.27 1.24 1.19 1.22 1.30
0.61 0.64 0.66 0.61 0.49 0.43 0.35 0.31 0.34 0.36 0.38 0.41 0.47 0.59 0.74 0.89 0.91 0.82 0.91 0.91 0.88 0.88 0.84 0.84 0.88 0.86 0.88 0.77 0.70 0.68 0.73 0.90 1.12 1.30 1.33 1.29 1.35 1.29 1.23 1.17 1.10 1.07 1.08
0.45 0.49 0.47 0.47 0.43 0.35 0.28 0.28 0.30 0.34 0.37 0.39 0.43 0.49 0.57 0.76 0.81 0.72 0.89 0.92 0.93 0.92 0.90 0.91 0.93 0.97 0.94 1.02 0.99 0.90 0.85 0.85 0.95 0.87 0.97 1.22 1.30 1.29 1.28 1.30 1.28 1.16 1.07
0.30 0.36 0.40 0.40 0.37 0.31 0.27 0.33 0.40 0.40 0.39 0.38 0.38 0.41 0.44 0.53 0.62 0.59 0.73 0.87 0.97 0.96 0.86 0.86 0.90 0.93 1.12 1.15 1.06 1.04 0.98 0.94 1.08 1.08 1.08 1.12 1.15 1.14 1.15 1.23 1.27 1.20 1.15
0.19 0.24 0.28 0.31 0.34 0.38 0.46 0.54 0.55 0.52 0.46 0.41 0.39 0.37 0.40 0.42 0.55 0.45 0.56 0.73 0.89 0.98 0.92 0.88 1.03 0.99 1.00 0.94 0.90 1.09 1.07 0.97 0.88 0.85 0.87 0.91 0.92 0.96 1.00 1.03 1.14 1.13 1.05
0.04 0.10 0.18 0.29 0.35 0.44 0.56 0.59 0.58 0.52 0.44 0.40 0.38 0.35 0.36 0.45 0.60 0.54 0.60 0.69 0.81 0.89 0.92 0.95 0.92 0.98 0.81 0.76 0.80 0.94 1.10 1.03 0.97 0.99 0.94 0.89 0.87 0.86 0.81 0.85 0.96 1.02 1.02
0.03 0.07 0.13 0.20 0.29 0.42 0.51 0.50 0.50 0.49 0.46 0.42 0.43 0.40 0.42 0.53 0.60 0.60 0.60 0.65 0.72 0.79 0.81 0.74 0.73 0.79 0.64 0.58 0.57 0.69 0.86 0.89 0.89 0.96 0.94 0.88 0.83 0.80 0.76 0.75 0.80 0.86 0.87
0.01 0.02 0.06 0.11 0.22 0.36 0.39 0.39 0.42 0.45 0.44 0.43 0.41 0.39 0.39 0.46 0.56 0.67 0.56 0.49 0.47 0.56 0.62 0.61 0.54 0.50 0.49 0.45 0.47 0.55 0.60 0.74 0.88 0.92 0.84 0.78 0.79 0.81 0.80 0.75 0.70 0.70 0.71
0.00 0.00 0.01 0.02 0.05 0.10 0.15 0.20 0.26 0.32 0.33 0.32 0.35 0.39 0.42 0.42 0.42 0.48 0.50 0.46 0.40 0.40 0.40 0.34 0.32 0.35 0.41 0.43 0.43 0.44 0.50 0.68 0.84 0.85 0.78 0.73 0.74 0.77 0.81 0.81 0.77 0.71 0.69
0.00 0.00 0.01 0.02 0.03 0.04 0.06 0.09 0.12 0.15 0.19 0.25 0.30 0.34 0.34 0.38 0.38 0.40 0.42 0.42 0.47 0.50 0.52 0.44 0.37 0.35 0.37 0.40 0.41 0.46 0.59 0.69 0.77 0.71 0.70 0.67 0.68 0.74 0.78 0.81 0.84 0.80 0.73
0.00 0.00 0.00 0.01 0.01 0.01 0.02 0.03 0.04 0.06 0.09 0.12 0.15 0.18 0.18 0.24 0.31 0.33 0.35 0.37 0.40 0.46 0.51 0.52 0.51 0.51 0.51 0.50 0.47 0.43 0.45 0.52 0.59 0.64 0.64 0.63 0.61 0.60 0.61 0.65 0.70 0.72 0.70
0.00 0.00 0.00 0.01 0.01 0.02 0.03 0.05 0.04 0.03 0.02 0.03 0.05 0.09 0.11 0.11 0.14 0.20 0.26 0.31 0.33 0.38 0.44 0.46 0.46 0.46 0.46 0.43 0.40 0.38 0.34 0.34 0.41 0.50 0.59 0.64 0.65 0.62 0.59 0.56 0.55 0.55 0.54
0.00 0.00 0.01 0.05 0.07 0.04 0.04 0.08 0.11 0.12 0.09 0.04 0.02 0.04 0.05 0.05 0.04 0.06 0.09 0.14 0.17 0.20 0.27 0.32 0.32 0.31 0.31 0.31 0.28 0.26 0.25 0.27 0.29 0.31 0.39 0.49 0.61 0.71 0.71 0.65 0.60 0.58 0.56
0.00 0.01 0.02 0.06 0.07 0.08 0.11 0.13 0.12 0.12 0.11 0.07 0.04 0.02 0.02 0.02 0.02 0.02 0.03 0.06 0.07 0.08 0.10 0.13 0.14 0.14 0.17 0.17 0.16 0.16 0.18 0.20 0.23 0.23 0.25 0.28 0.36 0.48 0.59 0.65 0.67 0.73 0.71
0.00 0.00 0.01 0.03 0.05 0.07 0.08 0.10 0.08 0.07 0.07 0.05 0.04 0.03 0.03 0.03 0.03 0.02 0.02 0.03 0.04 0.04 0.05 0.06 0.06 0.07 0.09 0.10 0.09 0.09 0.10 0.12 0.15 0.17 0.17 0.19 0.23 0.28 0.36 0.45 0.50 0.55 0.59
0.00 0.00 0.00 0.01 0.03 0.03 0.03 0.04 0.05 0.04 0.04 0.03 0.02 0.01 0.02 0.05 0.06 0.05 0.04 0.04 0.04 0.04 0.04 0.05 0.05 0.05 0.06 0.08 0.13 0.14 0.11 0.10 0.11 0.14 0.16 0.16 0.17 0.19 0.22 0.27 0.32 0.37 0.42
0.00 0.01 0.01 0.02 0.04 0.04 0.02 0.03 0.03 0.04 0.04 0.03 0.02 0.01 0.01 0.04 0.05 0.05 0.04 0.04 0.04 0.04 0.04 0.04 0.05 0.06 0.07 0.08 0.12 0.17 0.19 0.17 0.14 0.13 0.15 0.17 0.18 0.19 0.21 0.23 0.25 0.28 0.30
0.01 0.01 0.02 0.03 0.04 0.03 0.03 0.04 0.04 0.04 0.04 0.03 0.03 0.03 0.03 0.04 0.04 0.04 0.04 0.05 0.06 0.07 0.07 0.06 0.06 0.07 0.08 0.09 0.11 0.12 0.13 0.16 0.18 0.18 0.17 0.18 0.20 0.21 0.23 0.24 0.25 0.28 0.29
0.02 0.02 0.03 0.04 0.05 0.05 0.05 0.05 0.04 0.03 0.03 0.03 0.03 0.04 0.05 0.06 0.05 0.04 0.05 0.06 0.06 0.06 0.08 0.07 0.06 0.06 0.08 0.09 0.10 0.11 0.13 0.14 0.13 0.12 0.13 0.15 0.16 0.18 0.20 0.23 0.25 0.26 0.30
0.02 0.02 0.03 0.04 0.04 0.06 0.06 0.06 0.07 0.05 0.04 0.04 0.04 0.04 0.05 0.05 0.06 0.05 0.04 0.05 0.05 0.05 0.05 0.06 0.06 0.08 0.11 0.12 0.13 0.16 0.23 0.22 0.17 0.14 0.14 0.16 0.17 0.19 0.22 0.27 0.32 0.35 0.37
0.03 0.03 0.03 0.04 0.05 0.05 0.06 0.08 0.09 0.08 0.07 0.06 0.06 0.06 0.06 0.06 0.06 0.05 0.05 0.05 0.06 0.06 0.06 0.07 0.08 0.09 0.12 0.13 0.14 0.17 0.21 0.19 0.18 0.17 0.14 0.14 0.17 0.21 0.26 0.30 0.32 0.38 0.44